Location: Bonningues
(50.7927°N, 2.0150°E)
Time: 17:49:16
(UTC+00:00)

FALCON 9 DEB - Pass Details

Date: 08 August 2020
Orbit: 427 x 441 km, 53.0° (Epoch: 25 September)

Event Time Altitude Azimuth Distance (km) Brightness Sun altitude
Rises 21:06:16 0° 220° (SW) 2,422 6.8 -13.6°
Reaches altitude 10° 21:08:30 10° 211° (SSW) 1,556 5.8 -13.8°
Maximum altitude 21:11:41 33° 146° (SE) 761 3.8 -14.2°
Enters shadow 21:13:51 17° 90° (E) 1,195 5.0 -14.4°
